Flag for Italy Weather past 2 weeks in Catania, Italy

Now
46 °F

Clear.


Feels Like: 44 °F
Forecast: 44 / 59 °F
Wind: 6 mph from Southwest

Location: Catania / Fontanarossa

Current Time: Dec 21, 2014 at 5:50:18 AM

Latest Report: Dec 21, 2014 at 4:50 AM


Visibility: 10 mi

Pressure: 30.15 "Hg

Humidity: 87%

Dew point: 43 °F

Location of CataniaLocation

Historic Weather in Catania — Graph

°F

Catania temperature yesterday

Maximum temperature yesterday: 64 °F (at 2:50 PM)
Minimum temperature yesterday: 39 °F (at 6:50 AM)
Average temperature yesterday: 50 °F

Past Weeks' High & Low Weather Summary

 TemperatureHumidityPressure
High64 °F (Dec 6, 1:20 PM)100% (Dec 21, 1:20 AM)30.27 "Hg (Dec 21, 1:20 AM)
Low37 °F (Dec 13, 2:20 AM)42% (Dec 7, 1:20 PM)29.71 "Hg (Dec 9, 12:50 PM)
Average52 °F77%30.04 "Hg
* Reported Dec 6 4:20 AM — Dec 21 4:50 AM, Catania, Weather by CustomWeather, © 2014

Note: Actual official high and low records may vary slightly from our data, if they occured in-between our weather recording intervals... More about our weather records

Advertising

Catania weather history for previous 24 hours

 ConditionsComfort  
Time TempWeatherWind HumidityBarometerVisibility
4:50 AM
Dec 21
46 °FClear.6 mph87%30.15 "Hg10 mi
4:20 AM45 °FPassing clouds.7 mph87%30.18 "HgN/A
3:50 AM43 °FClear.12 mph93%30.18 "Hg10 mi
3:20 AM43 °FClear.8 mph93%30.18 "Hg10 mi
2:50 AM41 °FClear.7 mph93%30.18 "Hg10 mi
2:20 AM43 °FClear.8 mph93%30.18 "Hg10 mi
1:50 AM43 °FClear.8 mph93%30.18 "Hg10 mi
1:20 AM43 °FPassing clouds.7 mph100%30.21 "HgN/A
12:50 AM43 °FPassing clouds.7 mph93%30.18 "HgN/A
12:20 AM43 °FPassing clouds.6 mph93%30.21 "HgN/A
11:50 PM
Dec 20
45 °FPassing clouds.8 mph93%30.21 "HgN/A
11:20 PM46 °FPassing clouds.6 mph93%30.21 "HgN/A
10:50 PM48 °FPassing clouds.6 mph87%30.21 "HgN/A
10:20 PM50 °FPassing clouds.6 mph88%30.21 "HgN/A
9:50 PM50 °FPassing clouds.6 mph94%30.21 "HgN/A
9:20 PM52 °FPassing clouds.7 mph88%30.21 "HgN/A
8:50 PM54 °FPassing clouds.6 mph82%30.21 "HgN/A
8:20 PM50 °FPassing clouds.5 mph88%30.21 "HgN/A
7:50 PM50 °FPassing clouds.5 mph82%30.21 "HgN/A
7:20 PM52 °FPassing clouds.6 mph82%30.21 "HgN/A
6:50 PM55 °FPassing clouds.3 mph72%30.21 "HgN/A
6:20 PM55 °FPassing clouds.3 mph77%30.21 "HgN/A
5:50 PM55 °FPassing clouds.2 mph77%30.18 "HgN/A
5:20 PM57 °FPassing clouds.5 mph72%30.18 "HgN/A
4:50 PM57 °FClear.No wind72%30.18 "Hg10 mi
4:20 PM59 °FSunny.5 mph72%30.18 "Hg10 mi
3:50 PM64 °FSunny.2 mph49%30.18 "Hg10 mi
3:20 PM64 °FPassing clouds.5 mph49%30.18 "HgN/A
2:50 PM64 °FPassing clouds.5 mph49%30.18 "HgN/A
2:20 PM63 °FPassing clouds.6 mph52%30.18 "HgN/A
1:50 PM63 °FPassing clouds.6 mph56%30.18 "HgN/A
1:20 PM63 °FSunny.7 mph49%30.21 "Hg10 mi
12:50 PM61 °FPassing clouds.7 mph59%30.21 "HgN/A
12:20 PM61 °FPassing clouds.9 mph59%30.21 "HgN/A
11:50 AM59 °FSunny.9 mph63%30.24 "Hg10 mi
11:20 AM57 °FSunny.9 mph67%30.24 "Hg10 mi
10:50 AM57 °FSunny.10 mph67%30.27 "Hg10 mi
10:20 AM54 °FPassing clouds.8 mph82%30.27 "HgN/A
9:50 AM52 °FSunny.10 mph77%30.27 "Hg10 mi
9:20 AM48 °FSunny.8 mph87%30.27 "Hg10 mi
8:50 AM45 °FSunny.7 mph93%30.27 "Hg10 mi
8:20 AM41 °FSunny.7 mph93%30.27 "Hg10 mi
7:50 AM39 °FSunny.9 mph93%30.24 "Hg10 mi
7:20 AM39 °FSunny.10 mph93%30.24 "Hg10 mi
6:50 AM39 °FClear.9 mph93%30.24 "Hg10 mi
6:20 AM41 °FPassing clouds.10 mph87%30.24 "HgN/A
5:50 AM41 °FPassing clouds.9 mph87%30.24 "HgN/A
5:20 AM41 °FPassing clouds.10 mph93%30.24 "HgN/A
Weather by CustomWeather, © 2014

See weather overviewHow to use our weather pages